EN

Hourly Weather Abrosimovo

Today, 26 November, Thursday

Time Temperature Precipitation Wind Pressure Humidity
00:00 0°C° 0 mm 1 mps 746 mmHg 93%
01:00 0°C° 0 mm 1 mps 747 mmHg 92%
02:00 +1°C° 0 mm 1 mps 747 mmHg 95%
03:00 +1°C° 0 mm 1 mps 747 mmHg 94%
04:00 +1°C° 0 mm 1 mps 747 mmHg 93%
05:00 0°C° 0 mm 1 mps 747 mmHg 92%
06:00 0°C° 0 mm 1 mps 747 mmHg 92%
07:00 0°C° 0 mm 1 mps 747 mmHg 92%
08:00 0°C° 0 mm 1 mps 747 mmHg 92%
09:00 -1°C° 0 mm 2 mps 747 mmHg 93%
10:00 -1°C° 0 mm 3 mps 747 mmHg 94%
11:00 0°C° 0 mm 3 mps 747 mmHg 95%
12:00 0°C° 0.3 mm 3 mps 746 mmHg 96%
13:00 -1°C° 0.3 mm 4 mps 746 mmHg 97%
14:00 -1°C° 0.3 mm 4 mps 746 mmHg 98%
15:00 0°C° 0.1 mm 4 mps 746 mmHg 98%
16:00 0°C° 0.1 mm 4 mps 745 mmHg 98%
17:00 0°C° 0.1 mm 4 mps 745 mmHg 98%
18:00 0°C° 0 mm 4 mps 745 mmHg 97%
19:00 0°C° 0 mm 4 mps 744 mmHg 97%
20:00 0°C° 0 mm 4 mps 744 mmHg 97%
21:00 0°C° 0 mm 4 mps 744 mmHg 97%
22:00 0°C° 0 mm 4 mps 744 mmHg 97%
23:00 0°C° 0 mm 5 mps 744 mmHg 97%

Tomorrow, 27 November, Friday

Time Temperature Precipitation Wind Pressure Humidity
00:00 0°C° 0 mm 5 mps 743 mmHg 96%
01:00 0°C° 0 mm 5 mps 743 mmHg 95%
02:00 0°C° 0 mm 5 mps 743 mmHg 93%
03:00 -1°C° 0 mm 5 mps 742 mmHg 93%
04:00 -1°C° 0 mm 5 mps 742 mmHg 92%
05:00 -2°C° 0 mm 5 mps 742 mmHg 91%
06:00 -2°C° 0 mm 5 mps 741 mmHg 92%
07:00 -4°C° 0 mm 5 mps 741 mmHg 92%
08:00 -4°C° 0 mm 5 mps 741 mmHg 92%
09:00 -4°C° 0 mm 5 mps 741 mmHg 91%
10:00 -2°C° 0 mm 5 mps 741 mmHg 89%
11:00 -2°C° 0 mm 5 mps 741 mmHg 88%
12:00 -2°C° 0 mm 5 mps 741 mmHg 88%
13:00 -2°C° 0 mm 5 mps 741 mmHg 89%
14:00 -1°C° 0 mm 4 mps 741 mmHg 90%
15:00 -1°C° 0 mm 4 mps 741 mmHg 91%
16:00 -2°C° 0 mm 4 mps 741 mmHg 93%
17:00 -2°C° 0 mm 4 mps 741 mmHg 94%
18:00 -1°C° 0.1 mm 4 mps 741 mmHg 95%
19:00 -1°C° 0.1 mm 4 mps 741 mmHg 96%
20:00 -1°C° 0.1 mm 4 mps 741 mmHg 97%
21:00 0°C° 0 mm 3 mps 741 mmHg 97%
22:00 0°C° 0 mm 3 mps 741 mmHg 97%
23:00 0°C° 0 mm 3 mps 741 mmHg 96%

Day after tomorrow, 28 November, Saturday

Time Temperature Precipitation Wind Pressure Humidity
00:00 0°C° 0 mm 3 mps 742 mmHg 96%
01:00 0°C° 0 mm 3 mps 742 mmHg 96%
02:00 0°C° 0 mm 3 mps 742 mmHg 97%
03:00 0°C° 0 mm 3 mps 742 mmHg 97%
04:00 0°C° 0 mm 3 mps 743 mmHg 97%
05:00 0°C° 0 mm 3 mps 743 mmHg 97%
06:00 0°C° 0.1 mm 3 mps 743 mmHg 97%
07:00 0°C° 0.1 mm 3 mps 744 mmHg 97%
08:00 0°C° 0.1 mm 3 mps 744 mmHg 97%
09:00 0°C° 0 mm 3 mps 745 mmHg 97%
10:00 +2°C° 0 mm 2 mps 745 mmHg 96%
11:00 +2°C° 0 mm 2 mps 745 mmHg 95%
12:00 +2°C° 0 mm 2 mps 746 mmHg 94%
13:00 +3°C° 0 mm 1 mps 746 mmHg 93%
14:00 +2°C° 0 mm 1 mps 747 mmHg 92%
15:00 +2°C° 0 mm 1 mps 747 mmHg 93%
16:00 +1°C° 0 mm 1 mps 747 mmHg 93%
17:00 +1°C° 0 mm 1 mps 747 mmHg 93%
18:00 +1°C° 0 mm 1 mps 747 mmHg 94%
19:00 +1°C° 0 mm 1 mps 747 mmHg 94%
20:00 +1°C° 0 mm 1 mps 748 mmHg 94%
21:00 -1°C° 0 mm 2 mps 748 mmHg 95%
22:00 -1°C° 0 mm 2 mps 748 mmHg 96%
23:00 +1°C° 0 mm 2 mps 748 mmHg 98%

29 November, Sunday

Time Temperature Precipitation Wind Pressure Humidity
00:00 +1°C° 0.3 mm 2 mps 748 mmHg 98%
01:00 +1°C° 0.3 mm 2 mps 748 mmHg 98%
02:00 +1°C° 0.3 mm 3 mps 748 mmHg 98%
03:00 +1°C° 0.5 mm 3 mps 747 mmHg 98%
04:00 +1°C° 0.5 mm 3 mps 747 mmHg 98%
05:00 0°C° 0.5 mm 4 mps 747 mmHg 97%
06:00 0°C° 0.3 mm 4 mps 747 mmHg 96%
07:00 +1°C° 0.3 mm 5 mps 747 mmHg 94%
08:00 +1°C° 0.3 mm 6 mps 747 mmHg 93%
09:00 -1°C° 0 mm 6 mps 747 mmHg 93%
10:00 -1°C° 0 mm 6 mps 747 mmHg 93%
11:00 -2°C° 0 mm 6 mps 747 mmHg 92%
12:00 -1°C° 0 mm 6 mps 747 mmHg 91%
13:00 -1°C° 0 mm 6 mps 747 mmHg 90%
14:00 +1°C° 0 mm 6 mps 747 mmHg 88%
15:00 +1°C° 0 mm 6 mps 747 mmHg 89%
16:00 +1°C° 0 mm 6 mps 747 mmHg 89%
17:00 +2°C° 0 mm 6 mps 747 mmHg 89%
18:00 +2°C° 0 mm 6 mps 747 mmHg 89%
19:00 +2°C° 0 mm 6 mps 747 mmHg 88%
20:00 +2°C° 0 mm 6 mps 747 mmHg 88%
21:00 +2°C° 0 mm 6 mps 747 mmHg 88%
22:00 +2°C° 0 mm 6 mps 747 mmHg 88%
23:00 +2°C° 0 mm 6 mps 747 mmHg 88%

30 November, Monday

Time Temperature Precipitation Wind Pressure Humidity
00:00 +3°C° 0 mm 7 mps 748 mmHg 88%
01:00 +3°C° 0 mm 7 mps 748 mmHg 88%
02:00 +3°C° 0 mm 7 mps 748 mmHg 88%
03:00 +3°C° 0.3 mm 7 mps 748 mmHg 89%
04:00 +2°C° 0.3 mm 6 mps 748 mmHg 89%
05:00 +2°C° 0.3 mm 6 mps 749 mmHg 90%
06:00 +2°C° 0.3 mm 6 mps 749 mmHg 91%
07:00 +2°C° 0.3 mm 5 mps 750 mmHg 91%
08:00 +2°C° 0.3 mm 5 mps 750 mmHg 92%
09:00 +3°C° 0.3 mm 4 mps 750 mmHg 93%
10:00 +3°C° 0.3 mm 4 mps 751 mmHg 93%
11:00 +3°C° 0.3 mm 3 mps 751 mmHg 94%
12:00 +2°C° 0.4 mm 3 mps 751 mmHg 94%
13:00 +2°C° 0.4 mm 3 mps 751 mmHg 94%
14:00 +2°C° 0.4 mm 3 mps 752 mmHg 94%
15:00 +2°C° 0.2 mm 3 mps 752 mmHg 93%
16:00 +2°C° 0.2 mm 3 mps 752 mmHg 93%
17:00 +2°C° 0.2 mm 3 mps 752 mmHg 92%
18:00 +1°C° 0.3 mm 4 mps 753 mmHg 91%
19:00 +1°C° 0.3 mm 4 mps 753 mmHg 91%
20:00 +1°C° 0.3 mm 4 mps 753 mmHg 90%
21:00 +1°C° 0.1 mm 4 mps 754 mmHg 90%
22:00 0°C° 0.1 mm 4 mps 754 mmHg 90%
23:00 +1°C° 0.1 mm 3 mps 754 mmHg 90%

1 December, Tuesday

Time Temperature Precipitation Wind Pressure Humidity
00:00 +1°C° 0 mm 3 mps 754 mmHg 90%
01:00 +1°C° 0 mm 3 mps 754 mmHg 91%
02:00 +1°C° 0 mm 3 mps 754 mmHg 91%
03:00 +1°C° 0.1 mm 3 mps 754 mmHg 92%
04:00 +1°C° 0.1 mm 3 mps 755 mmHg 93%
05:00 +1°C° 0.1 mm 3 mps 755 mmHg 94%
06:00 0°C° 0.1 mm 3 mps 755 mmHg 93%
07:00 0°C° 0.1 mm 3 mps 755 mmHg 92%
08:00 0°C° 0.1 mm 3 mps 755 mmHg 92%
09:00 0°C° 0 mm 3 mps 755 mmHg 90%
10:00 0°C° 0 mm 3 mps 755 mmHg 88%
11:00 +1°C° 0 mm 2 mps 755 mmHg 87%
12:00 +1°C° 0 mm 2 mps 755 mmHg 86%
13:00 +1°C° 0 mm 2 mps 755 mmHg 85%
14:00 +1°C° 0 mm 2 mps 755 mmHg 84%
15:00 +1°C° 0 mm 2 mps 755 mmHg 86%
16:00 -1°C° 0 mm 2 mps 755 mmHg 87%
17:00 -1°C° 0 mm 2 mps 755 mmHg 89%
18:00 -1°C° 0 mm 2 mps 755 mmHg 88%
19:00 -2°C° 0 mm 2 mps 755 mmHg 88%
20:00 -2°C° 0 mm 2 mps 755 mmHg 88%
21:00 -2°C° 0 mm 2 mps 755 mmHg 86%
22:00 -2°C° 0 mm 2 mps 755 mmHg 84%
23:00 -2°C° 0 mm 2 mps 755 mmHg 82%
Show more